Flag for China Weather past 2 weeks in Kashgar, Xinjiang, China

Now
79 °F

Sunny.


Feels Like: 77 °F
Forecast: 57 / 76 °F
Wind: 20 mph from North

Location: Kashi Airport

Current Time: May 25, 2015 at 7:32:57 PM

Latest Report: May 25, 2015 at 7:00 PM


Visibility: 10 mi

Pressure: 29.83 "Hg

Humidity: 9%

Dew point: 16 °F

Location of KashgarLocation

Historic Weather in Kashgar — Graph

°F

Kashgar temperature yesterday

Maximum temperature yesterday: 82 °F (at 6:00 PM)
Minimum temperature yesterday: 63 °F (at 8:00 AM)
Average temperature yesterday: 70 °F

Past Weeks' High & Low Weather Summary

 TemperatureHumidityPressure
High88 °F (May 16, 6:00 PM)73% (May 13, 11:00 AM)30.18 "Hg (May 13, 11:00 AM)
Low54 °F (May 25, 8:00 AM)4% (May 18, 5:00 PM)29.71 "Hg (May 12, 5:00 PM)
Average73 °F24%29.92 "Hg
* Reported May 10 6:00 PM — May 25 6:00 PM, Kashgar, Weather by CustomWeather, © 2015

Note: Actual official high and low records may vary slightly from our data, if they occured in-between our weather recording intervals... More about our weather records

Advertising

Kashgar weather history for previous 24 hours

 ConditionsComfort  
Time TempWeatherWind HumidityBarometerVisibility
6:00 PM
Mon, May 25
79 °FPassing clouds.17 mph7%29.83 "HgN/A
5:00 PM79 °FPassing clouds.10 mph6%29.80 "HgN/A
4:00 PM79 °FPassing clouds.15 mph6%29.83 "HgN/A
3:00 PM77 °FPassing clouds.17 mph5%29.83 "HgN/A
2:00 PM77 °FPassing clouds.10 mph8%29.83 "HgN/A
1:00 PM73 °FPassing clouds.13 mph7%29.86 "HgN/A
12:00 PM73 °FPassing clouds.10 mph11%29.86 "HgN/A
11:00 AM68 °FPassing clouds.10 mph23%29.89 "HgN/A
10:00 AM63 °FSunny.10 mph30%29.89 "Hg10 mi
9:00 AM61 °FSunny.10 mph39%29.89 "Hg10 mi
8:00 AM54 °FPassing clouds.10 mph67%29.92 "HgN/A
7:00 AM57 °FClear.13 mph59%29.92 "Hg10 mi
6:00 AM57 °FClear.8 mph59%29.92 "Hg10 mi
5:00 AM57 °FClear.6 mph59%29.95 "Hg10 mi
4:00 AM57 °FClear.6 mph63%29.95 "Hg4 mi
3:00 AM57 °FClear.8 mph63%29.98 "Hg10 mi
2:00 AM61 °FPassing clouds.3 mph45%29.95 "HgN/A
1:00 AM63 °FPassing clouds.3 mph42%29.95 "HgN/A
12:00 AM66 °FPassing clouds.3 mph24%29.92 "HgN/A
11:00 PM
Sun, May 24
68 °FPassing clouds.13 mph20%29.89 "HgN/A
10:00 PM66 °FPartly sunny.15 mph24%29.89 "HgN/A
9:00 PM68 °FScattered clouds.15 mph24%29.83 "HgN/A
8:00 PM68 °FScattered clouds.17 mph33%29.80 "HgN/A
7:00 PM73 °FScattered clouds.24 mph22%29.74 "HgN/A
Weather by CustomWeather, © 2015

See weather overviewHow to use our weather pages